contact:dominique.lefevre@mio.osupytheas.fr, maurice.libes@osupytheas.fr, didier.mallarino@osupytheas.fr
Project:EMSO http://www.emso-fr.org/EMSO-France
Depth: 2436.0 m
Title:EMSO Ligure Ouest : Data MII capteur MICROCAT
DateTime_Computer,Latitude,Longitude,Temperature,Conductivity,Pressure,DateTime_Instrument
DateTime_Computer,Latitude,Longitude,degC,S m-1,dbar,DateTime_Instrument
2021-08-21T00:02:47Z,42.805,6.029,13.3037,4.60046,2470.297,2021-8-21T02:04:06Z
2021-08-21T00:05:51Z,42.805,6.029,13.3011,4.60069,2470.31,2021-8-21T02:07:10Z
2021-08-21T00:08:54Z,42.805,6.029,13.3036,4.60064,2470.273,2021-8-21T02:10:13Z
2021-08-21T00:11:57Z,42.805,6.029,13.3038,4.60053,2470.297,2021-8-21T02:13:16Z
2021-08-21T00:15:00Z,42.805,6.029,13.3032,4.60057,2470.297,2021-8-21T02:16:19Z
2021-08-21T00:18:03Z,42.805,6.029,13.3004,4.60067,2470.273,2021-8-21T02:19:22Z
2021-08-21T00:21:06Z,42.805,6.029,13.3021,4.60081,2470.287,2021-8-21T02:22:25Z
2021-08-21T00:24:09Z,42.805,6.029,13.3021,4.60051,2470.287,2021-8-21T02:25:28Z
2021-08-21T00:27:12Z,42.805,6.029,13.3007,4.60065,2470.32,2021-8-21T02:28:31Z
2021-08-21T00:30:16Z,42.805,6.029,13.3039,4.60073,2470.31,2021-8-21T02:31:35Z
2021-08-21T00:33:19Z,42.805,6.029,13.3003,4.60064,2470.273,2021-8-21T02:34:38Z
2021-08-21T00:36:22Z,42.805,6.029,13.3006,4.60035,2470.31,2021-8-21T02:37:41Z
2021-08-21T00:39:25Z,42.805,6.029,13.3024,4.60041,2470.297,2021-8-21T02:40:44Z
2021-08-21T00:42:28Z,42.805,6.029,13.3009,4.60064,2470.273,2021-8-21T02:43:47Z
2021-08-21T00:45:31Z,42.805,6.029,13.3017,4.60107,2470.287,2021-8-21T02:46:50Z
2021-08-21T00:48:34Z,42.805,6.029,13.3006,4.60099,2470.297,2021-8-21T02:49:53Z
2021-08-21T00:51:38Z,42.805,6.029,13.3021,4.60103,2470.273,2021-8-21T02:52:56Z
2021-08-21T00:54:41Z,42.805,6.029,13.3028,4.60094,2470.273,2021-8-21T02:56:00Z
2021-08-21T00:57:44Z,42.805,6.029,13.3034,4.60094,2470.287,2021-8-21T02:59:03Z
2021-08-21T01:00:47Z,42.805,6.029,13.3026,4.60085,2470.287,2021-8-21T03:02:06Z
2021-08-21T01:03:50Z,42.805,6.029,13.3031,4.60097,2470.31,2021-8-21T03:05:09Z
2021-08-21T01:06:53Z,42.805,6.029,13.3029,4.60084,2470.273,2021-8-21T03:08:12Z
2021-08-21T01:09:56Z,42.805,6.029,13.3051,4.60096,2470.287,2021-8-21T03:11:15Z
2021-08-21T01:12:59Z,42.805,6.029,13.3043,4.60092,2470.31,2021-8-21T03:14:18Z
2021-08-21T01:16:02Z,42.805,6.029,13.3043,4.60099,2470.25,2021-8-21T03:17:21Z
2021-08-21T01:19:06Z,42.805,6.029,13.3031,4.60024,2470.287,2021-8-21T03:20:25Z
2021-08-21T01:22:09Z,42.805,6.029,13.3006,4.60038,2470.31,2021-8-21T03:23:28Z
2021-08-21T01:25:12Z,42.805,6.029,13.3009,4.60030,2470.273,2021-8-21T03:26:31Z
2021-08-21T01:28:15Z,42.805,6.029,13.3014,4.60034,2470.287,2021-8-21T03:29:34Z
2021-08-21T01:31:18Z,42.805,6.029,13.3018,4.60024,2470.31,2021-8-21T03:32:37Z
2021-08-21T01:34:21Z,42.805,6.029,13.3018,4.60034,2470.287,2021-8-21T03:35:40Z
2021-08-21T01:37:24Z,42.805,6.029,13.3018,4.60017,2470.273,2021-8-21T03:38:43Z
2021-08-21T01:40:27Z,42.805,6.029,13.3010,4.60042,2470.273,2021-8-21T03:41:46Z
2021-08-21T01:43:31Z,42.805,6.029,13.3005,4.60047,2470.31,2021-8-21T03:44:50Z
2021-08-21T01:46:34Z,42.805,6.029,13.3021,4.60026,2470.273,2021-8-21T03:47:53Z
2021-08-21T01:49:37Z,42.805,6.029,13.2999,4.60034,2470.273,2021-8-21T03:50:56Z
2021-08-21T01:52:40Z,42.805,6.029,13.3021,4.60033,2470.297,2021-8-21T03:53:59Z
2021-08-21T01:55:43Z,42.805,6.029,13.3015,4.60014,2470.287,2021-8-21T03:57:02Z
2021-08-21T01:58:46Z,42.805,6.029,13.3024,4.60049,2470.287,2021-8-21T04:00:05Z
2021-08-21T02:01:49Z,42.805,6.029,13.3018,4.60033,2470.31,2021-8-21T04:03:08Z
2021-08-21T02:04:52Z,42.805,6.029,13.3039,4.60015,2470.297,2021-8-21T04:06:11Z
2021-08-21T02:07:56Z,42.805,6.029,13.3004,4.60014,2470.297,2021-8-21T04:09:14Z
2021-08-21T02:10:59Z,42.805,6.029,13.3013,4.60015,2470.31,2021-8-21T04:12:18Z
2021-08-21T02:14:02Z,42.805,6.029,13.3006,4.60037,2470.287,2021-8-21T04:15:21Z
2021-08-21T02:17:05Z,42.805,6.029,13.3014,4.60022,2470.297,2021-8-21T04:18:24Z
2021-08-21T02:20:08Z,42.805,6.029,13.3009,4.60051,2470.297,2021-8-21T04:21:27Z
2021-08-21T02:23:11Z,42.805,6.029,13.3006,4.60042,2470.273,2021-8-21T04:24:30Z
2021-08-21T02:26:14Z,42.805,6.029,13.3008,4.60045,2470.287,2021-8-21T04:27:33Z
2021-08-21T02:29:17Z,42.805,6.029,13.3043,4.60066,2470.31,2021-8-21T04:30:36Z
2021-08-21T02:32:21Z,42.805,6.029,13.3034,4.60046,2470.287,2021-8-21T04:33:39Z
2021-08-21T02:35:24Z,42.805,6.029,13.3040,4.60039,2470.287,2021-8-21T04:36:43Z
2021-08-21T02:38:27Z,42.805,6.029,13.3029,4.60072,2470.32,2021-8-21T04:39:46Z
2021-08-21T02:41:30Z,42.805,6.029,13.3032,4.60021,2470.31,2021-8-21T04:42:49Z
2021-08-21T02:44:33Z,42.805,6.029,13.3017,4.60037,2470.297,2021-8-21T04:45:52Z
2021-08-21T02:47:36Z,42.805,6.029,13.3006,4.60059,2470.287,2021-8-21T04:48:55Z
2021-08-21T02:50:39Z,42.805,6.029,13.3012,4.60088,2470.297,2021-8-21T04:51:58Z
2021-08-21T02:53:42Z,42.805,6.029,13.3036,4.60060,2470.297,2021-8-21T04:55:01Z
2021-08-21T02:56:46Z,42.805,6.029,13.3054,4.60033,2470.32,2021-8-21T04:58:04Z
2021-08-21T02:59:49Z,42.805,6.029,13.3048,4.60041,2470.297,2021-8-21T05:01:08Z
2021-08-21T03:02:52Z,42.805,6.029,13.3045,4.60097,2470.32,2021-8-21T05:04:11Z
2021-08-21T03:05:55Z,42.805,6.029,13.3040,4.60097,2470.334,2021-8-21T05:07:14Z
2021-08-21T03:08:58Z,42.805,6.029,13.3043,4.60098,2470.334,2021-8-21T05:10:17Z
2021-08-21T03:12:01Z,42.805,6.029,13.3052,4.60061,2470.334,2021-8-21T05:13:20Z
2021-08-21T03:15:04Z,42.805,6.029,13.3055,4.60059,2470.273,2021-8-21T05:16:23Z
2021-08-21T03:18:07Z,42.805,6.029,13.3010,4.60017,2470.357,2021-8-21T05:19:26Z
2021-08-21T03:21:11Z,42.805,6.029,13.3029,4.60046,2470.357,2021-8-21T05:22:29Z
2021-08-21T03:24:14Z,42.805,6.029,13.3023,4.60017,2470.334,2021-8-21T05:25:33Z
2021-08-21T03:27:17Z,42.805,6.029,13.3015,4.60032,2470.357,2021-8-21T05:28:36Z
2021-08-21T03:30:20Z,42.805,6.029,13.3021,4.60052,2470.334,2021-8-21T05:31:39Z
2021-08-21T03:33:23Z,42.805,6.029,13.3027,4.60049,2470.357,2021-8-21T05:34:42Z
2021-08-21T03:36:26Z,42.805,6.029,13.3019,4.60049,2470.32,2021-8-21T05:37:45Z
2021-08-21T03:39:29Z,42.805,6.029,13.3010,4.60071,2470.38,2021-8-21T05:40:48Z
2021-08-21T03:42:32Z,42.805,6.029,13.3015,4.60052,2470.32,2021-8-21T05:43:51Z
2021-08-21T03:45:36Z,42.805,6.029,13.3034,4.60031,2470.357,2021-8-21T05:46:54Z
2021-08-21T03:48:39Z,42.805,6.029,13.3025,4.60029,2470.343,2021-8-21T05:49:58Z
2021-08-21T03:51:42Z,42.805,6.029,13.3034,4.60042,2470.343,2021-8-21T05:53:01Z
2021-08-21T03:54:45Z,42.805,6.029,13.3029,4.60028,2470.366,2021-8-21T05:56:04Z
2021-08-21T03:57:48Z,42.805,6.029,13.3023,4.60024,2470.366,2021-8-21T05:59:07Z
2021-08-21T04:00:51Z,42.805,6.029,13.3012,4.60015,2470.357,2021-8-21T06:02:10Z
2021-08-21T04:03:54Z,42.805,6.029,13.3024,4.60027,2470.38,2021-8-21T06:05:13Z
2021-08-21T04:06:57Z,42.805,6.029,13.3022,4.60019,2470.357,2021-8-21T06:08:16Z
2021-08-21T04:10:00Z,42.805,6.029,13.3026,4.60029,2470.343,2021-8-21T06:11:19Z
2021-08-21T04:13:04Z,42.805,6.029,13.3035,4.60026,2470.334,2021-8-21T06:14:23Z
2021-08-21T04:16:07Z,42.805,6.029,13.3021,4.60029,2470.39,2021-8-21T06:17:26Z
2021-08-21T04:19:10Z,42.805,6.029,13.3016,4.60024,2470.38,2021-8-21T06:20:29Z
2021-08-21T04:22:13Z,42.805,6.029,13.3022,4.60026,2470.32,2021-8-21T06:23:32Z
2021-08-21T04:25:16Z,42.805,6.029,13.3023,4.60011,2470.404,2021-8-21T06:26:35Z
2021-08-21T04:28:19Z,42.805,6.029,13.3011,4.60019,2470.413,2021-8-21T06:29:38Z
2021-08-21T04:31:22Z,42.805,6.029,13.3012,4.60022,2470.357,2021-8-21T06:32:41Z
2021-08-21T04:34:25Z,42.805,6.029,13.3015,4.60024,2470.404,2021-8-21T06:35:44Z
2021-08-21T04:37:29Z,42.805,6.029,13.3021,4.60022,2470.343,2021-8-21T06:38:48Z
2021-08-21T04:40:32Z,42.805,6.029,13.3024,4.60027,2470.38,2021-8-21T06:41:51Z
2021-08-21T04:43:35Z,42.805,6.029,13.3020,4.60029,2470.39,2021-8-21T06:44:54Z
2021-08-21T04:46:38Z,42.805,6.029,13.3024,4.60031,2470.404,2021-8-21T06:47:57Z
2021-08-21T04:49:41Z,42.805,6.029,13.3024,4.60026,2470.404,2021-8-21T06:51:00Z
2021-08-21T04:52:44Z,42.805,6.029,13.3024,4.60025,2470.413,2021-8-21T06:54:03Z
2021-08-21T04:55:47Z,42.805,6.029,13.3015,4.60021,2470.404,2021-8-21T06:57:06Z
2021-08-21T04:58:50Z,42.805,6.029,13.3023,4.60025,2470.39,2021-8-21T07:00:09Z
2021-08-21T05:01:54Z,42.805,6.029,13.3010,4.60018,2470.39,2021-8-21T07:03:13Z
2021-08-21T05:04:57Z,42.805,6.029,13.3018,4.60015,2470.343,2021-8-21T07:06:16Z
2021-08-21T05:08:00Z,42.805,6.029,13.3014,4.60024,2470.404,2021-8-21T07:09:19Z
2021-08-21T05:11:03Z,42.805,6.029,13.3024,4.60028,2470.413,2021-8-21T07:12:22Z
2021-08-21T05:14:06Z,42.805,6.029,13.3022,4.60033,2470.413,2021-8-21T07:15:25Z
2021-08-21T05:17:09Z,42.805,6.029,13.3025,4.60036,2470.404,2021-8-21T07:18:28Z
2021-08-21T05:20:12Z,42.805,6.029,13.3039,4.60016,2470.38,2021-8-21T07:21:31Z
2021-08-21T05:23:15Z,42.805,6.029,13.3019,4.60027,2470.427,2021-8-21T07:24:34Z
2021-08-21T05:26:19Z,42.805,6.029,13.3020,4.60032,2470.39,2021-8-21T07:27:37Z
2021-08-21T05:29:22Z,42.805,6.029,13.3038,4.60024,2470.427,2021-8-21T07:30:41Z
2021-08-21T05:32:25Z,42.805,6.029,13.3014,4.60025,2470.39,2021-8-21T07:33:44Z
2021-08-21T05:35:28Z,42.805,6.029,13.3019,4.60021,2470.427,2021-8-21T07:36:47Z
2021-08-21T05:38:31Z,42.805,6.029,13.3021,4.60026,2470.404,2021-8-21T07:39:50Z
2021-08-21T05:41:34Z,42.805,6.029,13.3019,4.60026,2470.413,2021-8-21T07:42:53Z
2021-08-21T05:44:37Z,42.805,6.029,13.3019,4.60021,2470.427,2021-8-21T07:45:56Z
2021-08-21T05:47:40Z,42.805,6.029,13.3015,4.60031,2470.376,2021-8-21T07:48:59Z
2021-08-21T05:50:43Z,42.805,6.029,13.3021,4.60034,2470.413,2021-8-21T07:52:02Z
2021-08-21T05:53:47Z,42.805,6.029,13.3024,4.60032,2470.437,2021-8-21T07:55:06Z
2021-08-21T05:56:50Z,42.805,6.029,13.3018,4.60031,2470.39,2021-8-21T07:58:09Z
2021-08-21T05:59:53Z,42.805,6.029,13.3034,4.60036,2470.357,2021-8-21T08:01:12Z
2021-08-21T06:02:56Z,42.805,6.029,13.3032,4.60033,2470.39,2021-8-21T08:04:15Z
2021-08-21T06:05:59Z,42.805,6.029,13.3032,4.60033,2470.39,2021-8-21T08:07:18Z
2021-08-21T06:09:02Z,42.805,6.029,13.3029,4.60047,2470.39,2021-8-21T08:10:21Z
2021-08-21T06:12:05Z,42.805,6.029,13.3029,4.60031,2470.413,2021-8-21T08:13:24Z
2021-08-21T06:15:08Z,42.805,6.029,13.3026,4.60029,2470.38,2021-8-21T08:16:27Z
2021-08-21T06:18:12Z,42.805,6.029,13.3023,4.60046,2470.413,2021-8-21T08:19:31Z
2021-08-21T06:21:15Z,42.805,6.029,13.3014,4.60033,2470.45,2021-8-21T08:22:34Z
2021-08-21T06:24:18Z,42.805,6.029,13.3039,4.60026,2470.413,2021-8-21T08:25:37Z
2021-08-21T06:27:21Z,42.805,6.029,13.3015,4.60045,2470.427,2021-8-21T08:28:40Z
2021-08-21T06:30:24Z,42.805,6.029,13.3012,4.60026,2470.39,2021-8-21T08:31:43Z
2021-08-21T06:33:27Z,42.805,6.029,13.3019,4.60031,2470.413,2021-8-21T08:34:46Z
2021-08-21T06:36:30Z,42.805,6.029,13.3019,4.60035,2470.427,2021-8-21T08:37:49Z
2021-08-21T06:39:33Z,42.805,6.029,13.3023,4.60033,2470.404,2021-8-21T08:40:52Z
2021-08-21T06:42:37Z,42.805,6.029,13.3030,4.60032,2470.413,2021-8-21T08:43:56Z
2021-08-21T06:45:40Z,42.805,6.029,13.3026,4.60036,2470.437,2021-8-21T08:46:59Z
2021-08-21T06:48:43Z,42.805,6.029,13.3030,4.60037,2470.39,2021-8-21T08:50:02Z
2021-08-21T06:51:46Z,42.805,6.029,13.3029,4.60054,2470.39,2021-8-21T08:53:05Z
2021-08-21T06:54:49Z,42.805,6.029,13.3035,4.60034,2470.427,2021-8-21T08:56:08Z
2021-08-21T06:57:52Z,42.805,6.029,13.3024,4.60035,2470.38,2021-8-21T08:59:11Z
2021-08-21T07:00:55Z,42.805,6.029,13.3046,4.60033,2470.39,2021-8-21T09:02:14Z
2021-08-21T07:03:58Z,42.805,6.029,13.3043,4.60039,2470.404,2021-8-21T09:05:17Z
2021-08-21T07:07:02Z,42.805,6.029,13.3019,4.60034,2470.376,2021-8-21T09:08:21Z
2021-08-21T07:10:05Z,42.805,6.029,13.3016,4.60029,2470.413,2021-8-21T09:11:24Z
2021-08-21T07:13:08Z,42.805,6.029,13.3016,4.60027,2470.38,2021-8-21T09:14:27Z
2021-08-21T07:16:11Z,42.805,6.029,13.3027,4.60028,2470.427,2021-8-21T09:17:30Z
2021-08-21T07:19:14Z,42.805,6.029,13.3023,4.60028,2470.39,2021-8-21T09:20:33Z
2021-08-21T07:22:17Z,42.805,6.029,13.3026,4.60029,2470.39,2021-8-21T09:23:36Z
2021-08-21T07:25:20Z,42.805,6.029,13.3031,4.60027,2470.39,2021-8-21T09:26:39Z
2021-08-21T07:28:23Z,42.805,6.029,13.3021,4.60028,2470.366,2021-8-21T09:29:42Z
2021-08-21T07:31:27Z,42.805,6.029,13.3024,4.60040,2470.366,2021-8-21T09:32:46Z
2021-08-21T07:34:30Z,42.805,6.029,13.3026,4.60040,2470.38,2021-8-21T09:35:49Z
2021-08-21T07:37:33Z,42.805,6.029,13.3029,4.60033,2470.39,2021-8-21T09:38:52Z
2021-08-21T07:40:36Z,42.805,6.029,13.3030,4.60038,2470.366,2021-8-21T09:41:55Z
2021-08-21T07:43:39Z,42.805,6.029,13.3022,4.60029,2470.39,2021-8-21T09:44:58Z
2021-08-21T07:46:42Z,42.805,6.029,13.3021,4.60036,2470.366,2021-8-21T09:48:01Z
2021-08-21T07:49:45Z,42.805,6.029,13.3040,4.60039,2470.404,2021-8-21T09:51:04Z
2021-08-21T07:52:48Z,42.805,6.029,13.3024,4.60051,2470.343,2021-8-21T09:54:07Z
2021-08-21T07:55:52Z,42.805,6.029,13.3021,4.60029,2470.39,2021-8-21T09:57:10Z
2021-08-21T07:58:55Z,42.805,6.029,13.3015,4.60035,2470.38,2021-8-21T10:00:14Z
2021-08-21T08:01:58Z,42.805,6.029,13.3015,4.60033,2470.38,2021-8-21T10:03:17Z
2021-08-21T08:05:01Z,42.805,6.029,13.3028,4.60031,2470.366,2021-8-21T10:06:20Z
2021-08-21T08:08:04Z,42.805,6.029,13.3033,4.60034,2470.39,2021-8-21T10:09:23Z
2021-08-21T08:11:07Z,42.805,6.029,13.3029,4.60029,2470.38,2021-8-21T10:12:26Z
2021-08-21T08:14:10Z,42.805,6.029,13.3025,4.60023,2470.404,2021-8-21T10:15:29Z
2021-08-21T08:17:13Z,42.805,6.029,13.3006,4.60056,2470.343,2021-8-21T10:18:32Z
2021-08-21T08:20:17Z,42.805,6.029,13.3021,4.60028,2470.39,2021-8-21T10:21:35Z
2021-08-21T08:23:20Z,42.805,6.029,13.3047,4.60026,2470.343,2021-8-21T10:24:39Z
2021-08-21T08:26:23Z,42.805,6.029,13.3008,4.60029,2470.357,2021-8-21T10:27:42Z
2021-08-21T08:29:26Z,42.805,6.029,13.3024,4.60019,2470.366,2021-8-21T10:30:45Z
2021-08-21T08:32:29Z,42.805,6.029,13.3006,4.60035,2470.404,2021-8-21T10:33:48Z
2021-08-21T08:35:32Z,42.805,6.029,13.3013,4.60035,2470.343,2021-8-21T10:36:51Z
2021-08-21T08:38:35Z,42.805,6.029,13.3021,4.60040,2470.39,2021-8-21T10:39:54Z
2021-08-21T08:41:38Z,42.805,6.029,13.3019,4.60028,2470.343,2021-8-21T10:42:57Z
2021-08-21T08:44:42Z,42.805,6.029,13.3027,4.60029,2470.357,2021-8-21T10:46:01Z
2021-08-21T08:47:45Z,42.805,6.029,13.3018,4.60035,2470.343,2021-8-21T10:49:04Z
2021-08-21T08:50:48Z,42.805,6.029,13.3035,4.60036,2470.343,2021-8-21T10:52:07Z
2021-08-21T08:53:51Z,42.805,6.029,13.3011,4.60031,2470.366,2021-8-21T10:55:10Z
2021-08-21T08:56:54Z,42.805,6.029,13.3033,4.60030,2470.366,2021-8-21T10:58:13Z
2021-08-21T08:59:57Z,42.805,6.029,13.3016,4.60026,2470.343,2021-8-21T11:01:16Z
2021-08-21T09:03:00Z,42.805,6.029,13.3021,4.60027,2470.366,2021-8-21T11:04:19Z
2021-08-21T09:06:03Z,42.805,6.029,13.3022,4.60036,2470.32,2021-8-21T11:07:22Z
2021-08-21T09:09:07Z,42.805,6.029,13.3020,4.60035,2470.32,2021-8-21T11:10:26Z
2021-08-21T09:12:10Z,42.805,6.029,13.3012,4.60033,2470.297,2021-8-21T11:13:29Z
2021-08-21T09:15:13Z,42.805,6.029,13.3031,4.60020,2470.38,2021-8-21T11:16:32Z
2021-08-21T09:18:16Z,42.805,6.029,13.3026,4.60029,2470.38,2021-8-21T11:19:35Z
2021-08-21T09:21:19Z,42.805,6.029,13.3031,4.60045,2470.38,2021-8-21T11:22:38Z
2021-08-21T09:24:22Z,42.805,6.029,13.3024,4.60024,2470.32,2021-8-21T11:25:41Z
2021-08-21T09:27:25Z,42.805,6.029,13.3032,4.60037,2470.334,2021-8-21T11:28:44Z
2021-08-21T09:30:29Z,42.805,6.029,13.3019,4.60044,2470.31,2021-8-21T11:31:47Z
2021-08-21T09:33:32Z,42.805,6.029,13.3027,4.60058,2470.343,2021-8-21T11:34:51Z
2021-08-21T09:36:35Z,42.805,6.029,13.3017,4.60036,2470.366,2021-8-21T11:37:54Z
2021-08-21T09:39:38Z,42.805,6.029,13.3028,4.60034,2470.334,2021-8-21T11:40:57Z
2021-08-21T09:42:41Z,42.805,6.029,13.3026,4.60032,2470.38,2021-8-21T11:44:00Z
2021-08-21T09:45:44Z,42.805,6.029,13.3007,4.60039,2470.334,2021-8-21T11:47:03Z
2021-08-21T09:48:47Z,42.805,6.029,13.3007,4.60037,2470.343,2021-8-21T11:50:06Z
2021-08-21T09:51:50Z,42.805,6.029,13.3032,4.60039,2470.334,2021-8-21T11:53:09Z
2021-08-21T09:54:54Z,42.805,6.029,13.3017,4.60039,2470.343,2021-8-21T11:56:12Z
2021-08-21T09:57:57Z,42.805,6.029,13.3014,4.60033,2470.334,2021-8-21T11:59:16Z
2021-08-21T10:01:00Z,42.805,6.029,13.3019,4.60047,2470.273,2021-8-21T12:02:19Z
2021-08-21T10:04:03Z,42.805,6.029,13.3009,4.60021,2470.297,2021-8-21T12:05:22Z
2021-08-21T10:07:06Z,42.805,6.029,13.3024,4.60029,2470.32,2021-8-21T12:08:25Z
2021-08-21T10:10:09Z,42.805,6.029,13.3023,4.60029,2470.31,2021-8-21T12:11:28Z
2021-08-21T10:13:12Z,42.805,6.029,13.3029,4.60019,2470.297,2021-8-21T12:14:31Z
2021-08-21T10:16:15Z,42.805,6.029,13.3027,4.60031,2470.287,2021-8-21T12:17:34Z
2021-08-21T10:19:19Z,42.805,6.029,13.3048,4.60036,2470.287,2021-8-21T12:20:38Z
2021-08-21T10:22:22Z,42.805,6.029,13.3020,4.60035,2470.31,2021-8-21T12:23:41Z
2021-08-21T10:25:25Z,42.805,6.029,13.3016,4.60024,2470.297,2021-8-21T12:26:44Z
2021-08-21T10:28:28Z,42.805,6.029,13.3024,4.60034,2470.297,2021-8-21T12:29:47Z
2021-08-21T10:31:31Z,42.805,6.029,13.3024,4.60026,2470.297,2021-8-21T12:32:50Z
2021-08-21T10:34:34Z,42.805,6.029,13.3020,4.60035,2470.343,2021-8-21T12:35:53Z
2021-08-21T10:37:37Z,42.805,6.029,13.3034,4.60032,2470.25,2021-8-21T12:38:56Z
2021-08-21T10:40:40Z,42.805,6.029,13.3016,4.60039,2470.273,2021-8-21T12:41:59Z
2021-08-21T10:43:44Z,42.805,6.029,13.3034,4.60041,2470.297,2021-8-21T12:45:03Z
2021-08-21T10:46:47Z,42.805,6.029,13.3029,4.60026,2470.297,2021-8-21T12:48:06Z
2021-08-21T10:49:50Z,42.805,6.029,13.3039,4.60031,2470.31,2021-8-21T12:51:09Z
2021-08-21T10:52:53Z,42.805,6.029,13.3021,4.60021,2470.31,2021-8-21T12:54:12Z
2021-08-21T10:55:56Z,42.805,6.029,13.3025,4.60037,2470.357,2021-8-21T12:57:15Z
2021-08-21T10:58:59Z,42.805,6.029,13.3032,4.60022,2470.287,2021-8-21T13:00:18Z
2021-08-21T11:02:02Z,42.805,6.029,13.3032,4.60041,2470.287,2021-8-21T13:03:21Z
2021-08-21T11:05:05Z,42.805,6.029,13.3039,4.60028,2470.25,2021-8-21T13:06:24Z
2021-08-21T11:08:09Z,42.805,6.029,13.3048,4.60033,2470.25,2021-8-21T13:09:28Z
2021-08-21T11:11:12Z,42.805,6.029,13.3049,4.60050,2470.264,2021-8-21T13:12:31Z
2021-08-21T11:14:15Z,42.805,6.029,13.3024,4.60054,2470.273,2021-8-21T13:15:34Z
2021-08-21T11:17:18Z,42.805,6.029,13.3052,4.60034,2470.264,2021-8-21T13:18:37Z
2021-08-21T11:20:21Z,42.805,6.029,13.3010,4.60029,2470.273,2021-8-21T13:21:40Z
2021-08-21T11:23:24Z,42.805,6.029,13.3017,4.60033,2470.227,2021-8-21T13:24:43Z
2021-08-21T11:26:27Z,42.805,6.029,13.3026,4.60042,2470.264,2021-8-21T13:27:46Z
2021-08-21T11:29:30Z,42.805,6.029,13.3021,4.60041,2470.24,2021-8-21T13:30:49Z
2021-08-21T11:32:34Z,42.805,6.029,13.3038,4.60031,2470.203,2021-8-21T13:33:53Z
2021-08-21T11:35:37Z,42.805,6.029,13.3041,4.60053,2470.264,2021-8-21T13:36:56Z
2021-08-21T11:38:40Z,42.805,6.029,13.3009,4.60028,2470.203,2021-8-21T13:39:59Z
2021-08-21T11:41:43Z,42.805,6.029,13.3021,4.60026,2470.227,2021-8-21T13:43:02Z
2021-08-21T11:44:46Z,42.805,6.029,13.3024,4.60027,2470.203,2021-8-21T13:46:05Z
2021-08-21T11:47:49Z,42.805,6.029,13.3024,4.60028,2470.264,2021-8-21T13:49:08Z
2021-08-21T11:50:52Z,42.805,6.029,13.3024,4.60037,2470.217,2021-8-21T13:52:11Z
2021-08-21T11:53:55Z,42.805,6.029,13.3033,4.60039,2470.203,2021-8-21T13:55:14Z
2021-08-21T11:56:59Z,42.805,6.029,13.3026,4.60039,2470.213,2021-8-21T13:58:18Z
2021-08-21T12:00:02Z,42.805,6.029,13.3015,4.60038,2470.203,2021-8-21T14:01:21Z
2021-08-21T12:03:05Z,42.805,6.029,13.3032,4.60033,2470.203,2021-8-21T14:04:24Z
2021-08-21T12:06:08Z,42.805,6.029,13.3037,4.60036,2470.24,2021-8-21T14:07:27Z
2021-08-21T12:09:11Z,42.805,6.029,13.3027,4.60043,2470.217,2021-8-21T14:10:30Z
2021-08-21T12:12:14Z,42.805,6.029,13.3038,4.60032,2470.18,2021-8-21T14:13:33Z
2021-08-21T12:15:17Z,42.805,6.029,13.3014,4.60032,2470.227,2021-8-21T14:16:36Z
2021-08-21T12:18:20Z,42.805,6.029,13.3023,4.60053,2470.24,2021-8-21T14:19:39Z
2021-08-21T12:21:24Z,42.805,6.029,13.3020,4.60029,2470.25,2021-8-21T14:22:43Z
2021-08-21T12:24:27Z,42.805,6.029,13.3014,4.60029,2470.194,2021-8-21T14:25:46Z
2021-08-21T12:27:30Z,42.805,6.029,13.3036,4.60037,2470.203,2021-8-21T14:28:49Z
2021-08-21T12:30:33Z,42.805,6.029,13.3021,4.60040,2470.227,2021-8-21T14:31:52Z
2021-08-21T12:33:36Z,42.805,6.029,13.3011,4.60039,2470.217,2021-8-21T14:34:55Z
2021-08-21T12:36:39Z,42.805,6.029,13.3031,4.60056,2470.24,2021-8-21T14:37:58Z
2021-08-21T12:39:42Z,42.805,6.029,13.3012,4.60043,2470.217,2021-8-21T14:41:01Z
2021-08-21T12:42:45Z,42.805,6.029,13.3003,4.60069,2470.227,2021-8-21T14:44:04Z
2021-08-21T12:45:49Z,42.805,6.029,13.3033,4.60024,2470.194,2021-8-21T14:47:08Z
2021-08-21T12:48:52Z,42.805,6.029,13.3008,4.60072,2470.217,2021-8-21T14:50:11Z
2021-08-21T12:51:55Z,42.805,6.029,13.3019,4.60016,2470.203,2021-8-21T14:53:14Z
2021-08-21T12:54:58Z,42.805,6.029,13.3021,4.60024,2470.194,2021-8-21T14:56:17Z
2021-08-21T12:58:01Z,42.805,6.029,13.3046,4.60039,2470.24,2021-8-21T14:59:20Z
2021-08-21T13:01:04Z,42.805,6.029,13.3036,4.60035,2470.203,2021-8-21T15:02:23Z
2021-08-21T13:04:07Z,42.805,6.029,13.3022,4.60044,2470.203,2021-8-21T15:05:26Z
2021-08-21T13:07:11Z,42.805,6.029,13.3029,4.60042,2470.18,2021-8-21T15:08:29Z
2021-08-21T13:10:14Z,42.805,6.029,13.3010,4.60043,2470.25,2021-8-21T15:11:33Z
2021-08-21T13:13:17Z,42.805,6.029,13.3055,4.60031,2470.227,2021-8-21T15:14:36Z
2021-08-21T13:16:20Z,42.805,6.029,13.3035,4.60032,2470.203,2021-8-21T15:17:39Z
2021-08-21T13:19:23Z,42.805,6.029,13.3031,4.60030,2470.217,2021-8-21T15:20:42Z
2021-08-21T13:22:26Z,42.805,6.029,13.3031,4.60049,2470.217,2021-8-21T15:23:45Z
2021-08-21T13:25:29Z,42.805,6.029,13.3021,4.60029,2470.264,2021-8-21T15:26:48Z
2021-08-21T13:28:32Z,42.805,6.029,13.3039,4.60026,2470.217,2021-8-21T15:29:51Z
2021-08-21T13:31:36Z,42.805,6.029,13.3052,4.60047,2470.227,2021-8-21T15:32:55Z
2021-08-21T13:34:39Z,42.805,6.029,13.3058,4.60052,2470.24,2021-8-21T15:35:58Z
2021-08-21T13:37:42Z,42.805,6.029,13.3019,4.60042,2470.203,2021-8-21T15:39:01Z
2021-08-21T13:40:45Z,42.805,6.029,13.3023,4.60066,2470.25,2021-8-21T15:42:04Z
2021-08-21T13:43:48Z,42.805,6.029,13.3026,4.60021,2470.24,2021-8-21T15:45:07Z
2021-08-21T13:46:51Z,42.805,6.029,13.3027,4.60030,2470.203,2021-8-21T15:48:10Z
2021-08-21T13:49:54Z,42.805,6.029,13.3014,4.60019,2470.25,2021-8-21T15:51:13Z
2021-08-21T13:52:57Z,42.805,6.029,13.3031,4.60016,2470.24,2021-8-21T15:54:16Z
2021-08-21T13:56:01Z,42.805,6.029,13.3011,4.60028,2470.25,2021-8-21T15:57:20Z
2021-08-21T13:59:04Z,42.805,6.029,13.3014,4.60042,2470.24,2021-8-21T16:00:23Z
2021-08-21T14:02:07Z,42.805,6.029,13.3025,4.60046,2470.227,2021-8-21T16:03:26Z
2021-08-21T14:05:10Z,42.805,6.029,13.3026,4.60036,2470.25,2021-8-21T16:06:29Z
2021-08-21T14:08:13Z,42.805,6.029,13.3009,4.60033,2470.25,2021-8-21T16:09:32Z
2021-08-21T14:11:16Z,42.805,6.029,13.3019,4.60023,2470.24,2021-8-21T16:12:35Z
2021-08-21T14:14:19Z,42.805,6.029,13.3026,4.60026,2470.264,2021-8-21T16:15:38Z
2021-08-21T14:17:22Z,42.805,6.029,13.3025,4.60036,2470.25,2021-8-21T16:18:41Z
2021-08-21T14:20:26Z,42.805,6.029,13.3022,4.60038,2470.24,2021-8-21T16:21:45Z
2021-08-21T14:23:29Z,42.805,6.029,13.3018,4.60033,2470.264,2021-8-21T16:24:48Z
2021-08-21T14:26:32Z,42.805,6.029,13.3046,4.60036,2470.301,2021-8-21T16:27:51Z
2021-08-21T14:29:35Z,42.805,6.029,13.3029,4.60035,2470.24,2021-8-21T16:30:54Z
2021-08-21T14:32:38Z,42.805,6.029,13.3039,4.60024,2470.287,2021-8-21T16:33:57Z
2021-08-21T14:35:41Z,42.805,6.029,13.3014,4.60022,2470.264,2021-8-21T16:37:00Z
2021-08-21T14:38:44Z,42.805,6.029,13.3021,4.60028,2470.264,2021-8-21T16:40:03Z
2021-08-21T14:41:47Z,42.805,6.029,13.3024,4.60028,2470.297,2021-8-21T16:43:06Z
2021-08-21T14:44:51Z,42.805,6.029,13.3024,4.60026,2470.25,2021-8-21T16:46:10Z
2021-08-21T14:47:54Z,42.805,6.029,13.3009,4.60029,2470.264,2021-8-21T16:49:13Z
2021-08-21T14:50:57Z,42.805,6.029,13.3024,4.60025,2470.297,2021-8-21T16:52:16Z
2021-08-21T14:54:00Z,42.805,6.029,13.3021,4.60029,2470.31,2021-8-21T16:55:19Z
2021-08-21T14:57:03Z,42.805,6.029,13.3009,4.60024,2470.273,2021-8-21T16:58:22Z
2021-08-21T15:00:06Z,42.805,6.029,13.3014,4.60014,2470.264,2021-8-21T17:01:25Z
2021-08-21T15:03:09Z,42.805,6.029,13.3013,4.60025,2470.287,2021-8-21T17:04:28Z
2021-08-21T15:06:12Z,42.805,6.029,13.3018,4.60019,2470.31,2021-8-21T17:07:31Z
2021-08-21T15:09:16Z,42.805,6.029,13.3010,4.60024,2470.297,2021-8-21T17:10:35Z
2021-08-21T15:12:19Z,42.805,6.029,13.3014,4.60022,2470.357,2021-8-21T17:13:38Z
2021-08-21T15:15:22Z,42.805,6.029,13.3011,4.60028,2470.31,2021-8-21T17:16:41Z